Time,TemperatureF,DewpointF,PressureIn,WindDirection,WindDirectionDegrees,WindSpeedMPH,WindSpeedGustMPH,Humidity,HourlyPrecipIn,Conditions,Clouds,dailyrainin,SoftwareType,DateUTC
2013-06-04 00:00:00,71.2,69.1,29.90,WSW,238,0.0,0.0,93,0.00,,,0.00,Wunderground v.1.15,2013-06-04 04:00:00,
2013-06-04 00:05:00,71.1,69.3,29.90,WSW,238,0.0,0.0,94,0.00,,,0.00,Wunderground v.1.15,2013-06-04 04:05:00,
2013-06-04 00:09:00,70.9,69.1,29.90,WSW,238,0.0,1.0,94,0.00,,,0.00,Wunderground v.1.15,2013-06-04 04:09:00,
2013-06-04 00:15:00,70.6,68.8,29.91,WSW,238,1.0,1.0,94,0.00,,,0.00,Wunderground v.1.15,2013-06-04 04:15:00,
2013-06-04 00:19:00,70.3,68.5,29.90,WSW,238,0.0,0.0,94,0.00,,,0.00,Wunderground v.1.15,2013-06-04 04:19:00,
2013-06-04 00:25:00,70.1,68.3,29.90,WSW,238,0.0,0.0,94,0.00,,,0.00,Wunderground v.1.15,2013-06-04 04:25:00,
2013-06-04 00:30:00,70.0,68.2,29.90,WSW,238,0.0,0.0,94,0.00,,,0.00,Wunderground v.1.15,2013-06-04 04:30:00,
2013-06-04 00:40:00,70.3,68.8,29.91,WSW,238,1.0,1.0,95,0.00,,,0.00,Wunderground v.1.15,2013-06-04 04:40:00,
2013-06-04 00:50:00,70.3,68.8,29.91,WSW,238,0.0,0.0,95,0.00,,,0.00,Wunderground v.1.15,2013-06-04 04:50:00,
2013-06-04 01:00:00,70.4,68.9,29.91,WSW,238,0.0,1.0,95,0.00,,,0.00,Wunderground v.1.15,2013-06-04 05:00:00,
2013-06-04 01:10:00,70.4,68.9,29.91,WSW,238,1.0,1.0,95,0.00,,,0.00,Wunderground v.1.15,2013-06-04 05:10:00,
2013-06-04 01:20:00,69.9,68.4,29.91,WSW,238,0.0,0.0,95,0.00,,,0.00,Wunderground v.1.15,2013-06-04 05:20:00,
2013-06-04 01:30:00,69.7,68.5,29.91,WSW,238,0.0,0.0,96,0.00,,,0.00,Wunderground v.1.15,2013-06-04 05:30:00,
2013-06-04 01:40:00,69.5,68.3,29.91,WSW,238,0.0,0.0,96,0.00,,,0.00,Wunderground v.1.15,2013-06-04 05:40:00,
2013-06-04 01:50:00,69.5,68.3,29.91,WSW,238,0.0,0.0,96,0.00,,,0.00,Wunderground v.1.15,2013-06-04 05:50:00,
2013-06-04 02:00:00,69.6,68.4,29.91,WSW,238,1.0,1.0,96,0.00,,,0.00,Wunderground v.1.15,2013-06-04 06:00:00,
2013-06-04 02:10:00,69.5,68.3,29.91,WSW,238,0.0,0.0,96,0.00,,,0.00,Wunderground v.1.15,2013-06-04 06:10:00,
2013-06-04 02:20:00,69.3,68.1,29.91,NNE,24,1.0,3.0,96,0.00,,,0.00,Wunderground v.1.15,2013-06-04 06:20:00,
2013-06-04 02:30:00,68.9,67.7,29.91,NNE,24,1.0,1.0,96,0.00,,,0.00,Wunderground v.1.15,2013-06-04 06:30:00,
2013-06-04 02:40:00,68.8,67.6,29.90,NNE,24,0.0,0.0,96,0.00,,,0.00,Wunderground v.1.15,2013-06-04 06:40:00,
2013-06-04 02:50:00,68.9,67.7,29.90,NNE,24,0.0,0.0,96,0.00,,,0.00,Wunderground v.1.15,2013-06-04 06:50:00,
2013-06-04 02:55:00,68.9,67.7,29.90,NNE,24,0.0,0.0,96,0.00,,,0.00,Wunderground v.1.15,2013-06-04 06:55:00,
2013-06-04 03:05:00,69.2,68.3,29.90,NNE,24,0.0,0.0,97,0.00,,,0.00,Wunderground v.1.15,2013-06-04 07:05:00,
2013-06-04 03:10:00,69.2,68.3,29.89,NNE,24,0.0,0.0,97,0.00,,,0.00,Wunderground v.1.15,2013-06-04 07:10:00,
2013-06-04 03:20:00,69.2,68.0,29.89,NNE,24,0.0,0.0,96,0.00,,,0.00,Wunderground v.1.15,2013-06-04 07:20:00,
2013-06-04 03:30:00,69.0,67.8,29.88,NNE,24,0.0,0.0,96,0.00,,,0.00,Wunderground v.1.15,2013-06-04 07:30:00,
2013-06-04 03:40:00,69.0,67.8,29.89,NNE,24,0.0,0.0,96,0.00,,,0.00,Wunderground v.1.15,2013-06-04 07:40:00,
2013-06-04 03:50:00,69.0,67.8,29.89,NNE,24,0.0,0.0,96,0.00,,,0.00,Wunderground v.1.15,2013-06-04 07:50:00,
2013-06-04 04:00:00,68.9,67.7,29.89,NNE,24,0.0,0.0,96,0.00,,,0.00,Wunderground v.1.15,2013-06-04 08:00:00,
2013-06-04 04:10:00,68.8,67.6,29.89,NNE,24,0.0,0.0,96,0.00,,,0.00,Wunderground v.1.15,2013-06-04 08:10:00,
2013-06-04 04:20:00,68.7,67.8,29.89,NNE,24,0.0,0.0,97,0.00,,,0.00,Wunderground v.1.15,2013-06-04 08:20:00,
2013-06-04 04:30:00,68.7,67.8,29.90,NNE,24,0.0,0.0,97,0.00,,,0.00,Wunderground v.1.15,2013-06-04 08:30:00,
2013-06-04 04:40:00,68.7,67.8,29.90,NNE,24,0.0,0.0,97,0.00,,,0.00,Wunderground v.1.15,2013-06-04 08:40:00,
2013-06-04 04:50:00,68.6,67.7,29.90,NNE,24,0.0,0.0,97,0.00,,,0.00,Wunderground v.1.15,2013-06-04 08:50:00,
2013-06-04 04:55:00,68.5,67.6,29.90,NNE,24,0.0,0.0,97,0.00,,,0.00,Wunderground v.1.15,2013-06-04 08:55:00,
2013-06-04 05:05:00,68.6,67.7,29.90,NNE,24,0.0,0.0,97,0.00,,,0.00,Wunderground v.1.15,2013-06-04 09:05:00,
2013-06-04 05:15:00,68.6,67.7,29.90,NNE,24,0.0,0.0,97,0.00,,,0.00,Wunderground v.1.15,2013-06-04 09:15:00,
2013-06-04 05:25:00,68.8,67.9,29.90,NNE,24,0.0,0.0,97,0.00,,,0.00,Wunderground v.1.15,2013-06-04 09:25:00,
2013-06-04 05:35:00,68.8,67.9,29.90,NNE,24,0.0,0.0,97,0.00,,,0.00,Wunderground v.1.15,2013-06-04 09:35:00,
2013-06-04 05:45:00,68.6,67.7,29.91,NNE,24,0.0,0.0,97,0.00,,,0.00,Wunderground v.1.15,2013-06-04 09:45:00,
2013-06-04 05:55:00,68.4,67.5,29.91,NNE,24,0.0,0.0,97,0.00,,,0.00,Wunderground v.1.15,2013-06-04 09:55:00,
2013-06-04 06:05:00,68.1,67.2,29.91,NNE,24,0.0,0.0,97,0.00,,,0.00,Wunderground v.1.15,2013-06-04 10:05:00,
2013-06-04 06:15:00,68.3,67.4,29.92,NNE,24,0.0,0.0,97,0.00,,,0.00,Wunderground v.1.15,2013-06-04 10:15:00,
2013-06-04 06:25:00,68.2,67.3,29.92,NNE,24,0.0,0.0,97,0.00,,,0.00,Wunderground v.1.15,2013-06-04 10:25:00,
2013-06-04 06:30:00,67.8,66.9,29.92,NNE,24,0.0,0.0,97,0.00,,,0.00,Wunderground v.1.15,2013-06-04 10:30:00,
2013-06-04 06:40:00,68.1,67.2,29.92,NNE,24,0.0,0.0,97,0.00,,,0.00,Wunderground v.1.15,2013-06-04 10:40:00,
2013-06-04 06:50:00,68.5,67.6,29.93,NNE,24,0.0,0.0,97,0.00,,,0.00,Wunderground v.1.15,2013-06-04 10:50:00,
2013-06-04 06:55:00,68.8,67.9,29.93,NNE,24,0.0,0.0,97,0.00,,,0.00,Wunderground v.1.15,2013-06-04 10:55:00,
2013-06-04 07:05:00,69.2,68.3,29.93,NNE,24,0.0,0.0,97,0.00,,,0.00,Wunderground v.1.15,2013-06-04 11:05:00,
2013-06-04 07:15:00,69.3,68.4,29.93,NNE,24,0.0,0.0,97,0.00,,,0.00,Wunderground v.1.15,2013-06-04 11:15:00,
2013-06-04 07:25:00,69.5,68.6,29.94,NNE,24,0.0,0.0,97,0.00,,,0.00,Wunderground v.1.15,2013-06-04 11:25:00,
2013-06-04 07:30:00,69.7,68.8,29.94,NNE,24,0.0,0.0,97,0.00,,,0.00,Wunderground v.1.15,2013-06-04 11:30:00,
2013-06-04 07:40:00,70.1,69.2,29.94,NNE,24,0.0,0.0,97,0.00,,,0.00,Wunderground v.1.15,2013-06-04 11:40:00,
2013-06-04 07:50:00,70.7,69.8,29.94,NNE,24,0.0,0.0,97,0.00,,,0.00,Wunderground v.1.15,2013-06-04 11:50:00,
2013-06-04 08:00:00,71.3,70.1,29.94,North,5,0.0,0.0,96,0.00,,,0.00,Wunderground v.1.15,2013-06-04 12:00:00,
2013-06-04 08:10:00,72.2,71.0,29.95,North,5,0.0,0.0,96,0.00,,,0.00,Wunderground v.1.15,2013-06-04 12:10:00,
2013-06-04 08:20:00,72.9,71.4,29.95,NE,34,0.0,0.0,95,0.00,,,0.00,Wunderground v.1.15,2013-06-04 12:20:00,
2013-06-04 08:30:00,73.5,71.4,29.94,NE,34,0.0,0.0,93,0.00,,,0.00,Wunderground v.1.15,2013-06-04 12:30:00,
2013-06-04 08:40:00,74.3,71.8,29.95,ENE,61,0.0,0.0,92,0.00,,,0.00,Wunderground v.1.15,2013-06-04 12:40:00,
2013-06-04 08:50:00,74.6,71.5,29.95,NE,53,0.0,0.0,90,0.00,,,0.00,Wunderground v.1.15,2013-06-04 12:50:00,
2013-06-04 08:55:00,74.8,71.7,29.95,NE,53,0.0,0.0,90,0.00,,,0.00,Wunderground v.1.15,2013-06-04 12:55:00,
2013-06-04 09:04:00,75.3,71.5,29.96,NE,56,0.0,0.0,88,0.00,,,0.00,Wunderground v.1.15,2013-06-04 13:04:00,
2013-06-04 09:10:00,75.5,71.4,29.96,ENE,65,0.0,0.0,87,0.00,,,0.00,Wunderground v.1.15,2013-06-04 13:10:00,
2013-06-04 09:15:00,76.0,72.2,29.96,NNE,30,0.0,0.0,88,0.00,,,0.00,Wunderground v.1.15,2013-06-04 13:15:00,
2013-06-04 09:25:00,76.4,71.6,29.96,ENE,59,0.0,0.0,85,0.00,,,0.00,Wunderground v.1.15,2013-06-04 13:25:00,
2013-06-04 09:35:00,76.7,71.5,29.96,NNE,25,0.0,0.0,84,0.00,,,0.00,Wunderground v.1.15,2013-06-04 13:35:00,
2013-06-04 09:45:00,77.1,71.5,29.96,North,355,0.0,4.0,83,0.00,,,0.00,Wunderground v.1.15,2013-06-04 13:45:00,
2013-06-04 09:55:00,77.4,72.5,29.97,NNE,13,3.0,3.0,85,0.00,,,0.00,Wunderground v.1.15,2013-06-04 13:55:00,
2013-06-04 10:05:00,77.5,71.6,29.97,ESE,103,4.0,5.0,82,0.00,,,0.00,Wunderground v.1.15,2013-06-04 14:05:00,
2013-06-04 10:15:00,77.8,71.5,29.97,ENE,76,3.0,4.0,81,0.00,,,0.00,Wunderground v.1.15,2013-06-04 14:15:00,
2013-06-04 10:25:00,78.3,72.3,29.97,East,80,2.0,5.0,82,0.00,,,0.00,Wunderground v.1.15,2013-06-04 14:25:00,
2013-06-04 10:35:00,78.8,71.0,29.97,ESE,117,4.0,4.0,77,0.00,,,0.00,Wunderground v.1.15,2013-06-04 14:35:00,
2013-06-04 10:45:00,79.2,71.4,29.97,ESE,103,4.0,5.0,77,0.00,,,0.00,Wunderground v.1.15,2013-06-04 14:45:00,
2013-06-04 10:55:00,79.3,72.2,29.97,SSE,150,4.0,5.0,79,0.00,,,0.00,Wunderground v.1.15,2013-06-04 14:55:00,
2013-06-04 11:04:00,80.2,73.1,29.97,ESE,118,4.0,4.0,79,0.00,,,0.00,Wunderground v.1.15,2013-06-04 15:04:00,
2013-06-04 11:10:00,79.9,71.7,29.97,East,93,4.0,4.0,76,0.00,,,0.00,Wunderground v.1.15,2013-06-04 15:10:00,
2013-06-04 11:20:00,80.2,71.9,29.98,ENE,66,3.0,3.0,76,0.00,,,0.00,Wunderground v.1.15,2013-06-04 15:20:00,
2013-06-04 11:25:00,80.8,72.1,29.98,East,88,2.0,3.0,75,0.00,,,0.00,Wunderground v.1.15,2013-06-04 15:25:00,
2013-06-04 11:35:00,80.9,71.8,29.98,NE,47,3.0,3.0,74,0.00,,,0.00,Wunderground v.1.15,2013-06-04 15:35:00,
2013-06-04 11:45:00,81.4,71.9,29.98,ESE,105,3.0,3.0,73,0.00,,,0.00,Wunderground v.1.15,2013-06-04 15:45:00,
2013-06-04 11:55:00,82.2,72.7,29.98,NNE,21,3.0,4.0,73,0.00,,,0.00,Wunderground v.1.15,2013-06-04 15:55:00,
2013-06-04 12:05:00,82.4,71.2,29.98,ESE,119,3.0,4.0,69,0.00,,,0.00,Wunderground v.1.15,2013-06-04 16:05:00,
2013-06-04 12:15:00,82.2,71.4,29.98,NE,52,4.0,4.0,70,0.00,,,0.00,Wunderground v.1.15,2013-06-04 16:15:00,
2013-06-04 12:25:00,82.5,70.9,29.98,ENE,70,3.0,5.0,68,0.00,,,0.00,Wunderground v.1.15,2013-06-04 16:25:00,
2013-06-04 12:35:00,82.8,72.4,29.98,NE,48,3.0,3.0,71,0.00,,,0.00,Wunderground v.1.15,2013-06-04 16:35:00,
2013-06-04 12:45:00,83.1,71.9,29.97,East,93,4.0,6.0,69,0.00,,,0.00,Wunderground v.1.15,2013-06-04 16:45:00,
2013-06-04 12:55:00,82.8,71.2,29.97,East,91,4.0,7.0,68,0.00,,,0.00,Wunderground v.1.15,2013-06-04 16:55:00,
2013-06-04 13:05:00,84.2,72.0,29.97,ESE,109,4.0,5.0,67,0.00,,,0.00,Wunderground v.1.15,2013-06-04 17:05:00,
2013-06-04 13:15:00,83.6,71.5,29.97,East,94,2.0,3.0,67,0.00,,,0.00,Wunderground v.1.15,2013-06-04 17:15:00,
2013-06-04 13:25:00,83.8,72.1,29.96,East,95,3.0,7.0,68,0.00,,,0.00,Wunderground v.1.15,2013-06-04 17:25:00,
2013-06-04 13:35:00,84.5,73.2,29.96,ESE,117,4.0,7.0,69,0.00,,,0.00,Wunderground v.1.15,2013-06-04 17:35:00,
2013-06-04 13:45:00,85.0,72.4,29.96,ESE,104,6.0,6.0,66,0.00,,,0.00,Wunderground v.1.15,2013-06-04 17:45:00,
2013-06-04 13:55:00,83.7,70.7,29.96,ESE,116,6.0,8.0,65,0.00,,,0.00,Wunderground v.1.15,2013-06-04 17:55:00,
2013-06-04 14:04:00,83.5,70.9,29.96,SE,142,6.0,7.0,66,0.00,,,0.00,Wunderground v.1.15,2013-06-04 18:04:00,
2013-06-04 14:10:00,83.6,71.0,29.96,SSE,148,6.0,6.0,66,0.00,,,0.00,Wunderground v.1.15,2013-06-04 18:10:00,
2013-06-04 14:20:00,84.1,72.8,29.96,South,182,6.0,6.0,69,0.00,,,0.00,Wunderground v.1.15,2013-06-04 18:20:00,
2013-06-04 14:30:00,83.0,71.8,29.96,ESE,119,6.0,8.0,69,0.00,,,0.00,Wunderground v.1.15,2013-06-04 18:30:00,
2013-06-04 14:40:00,83.1,72.3,29.95,SSE,153,7.0,7.0,70,0.00,,,0.00,Wunderground v.1.15,2013-06-04 18:40:00,
2013-06-04 14:50:00,83.0,72.6,29.95,SSE,150,6.0,6.0,71,0.00,,,0.00,Wunderground v.1.15,2013-06-04 18:50:00,
2013-06-04 15:00:00,83.3,71.2,29.95,SE,131,6.0,6.0,67,0.00,,,0.00,Wunderground v.1.15,2013-06-04 19:00:00,
2013-06-04 15:09:00,83.0,71.8,29.94,ESE,119,5.0,5.0,69,0.00,,,0.00,Wunderground v.1.15,2013-06-04 19:09:00,
2013-06-04 15:15:00,83.8,73.0,29.94,SSE,153,5.0,6.0,70,0.00,,,0.00,Wunderground v.1.15,2013-06-04 19:15:00,
2013-06-04 15:25:00,82.9,71.7,29.94,SE,144,6.0,7.0,69,0.00,,,0.00,Wunderground v.1.15,2013-06-04 19:25:00,
2013-06-04 15:35:00,81.5,71.2,29.95,SE,142,8.0,8.0,71,0.00,,,0.00,Wunderground v.1.15,2013-06-04 19:35:00,
2013-06-04 15:45:00,81.2,72.1,29.95,SSE,157,7.0,8.0,74,0.00,,,0.00,Wunderground v.1.15,2013-06-04 19:45:00,
2013-06-04 15:55:00,80.5,72.2,29.95,SSE,148,6.0,9.0,76,0.00,,,0.00,Wunderground v.1.15,2013-06-04 19:55:00,
2013-06-04 16:04:00,79.9,71.7,29.95,SE,129,7.0,9.0,76,0.00,,,0.00,Wunderground v.1.15,2013-06-04 20:04:00,
2013-06-04 16:10:00,79.4,71.9,29.95,SE,144,8.0,9.0,78,0.00,,,0.00,Wunderground v.1.15,2013-06-04 20:10:00,
2013-06-04 16:20:00,78.6,71.5,29.96,SE,139,7.0,8.0,79,0.00,,,0.00,Wunderground v.1.15,2013-06-04 20:20:00,
2013-06-04 16:30:00,77.7,71.4,29.96,SE,128,8.0,8.0,81,0.00,,,0.00,Wunderground v.1.15,2013-06-04 20:30:00,
2013-06-04 16:39:00,77.6,72.0,29.96,East,96,4.0,7.0,83,0.00,,,0.00,Wunderground v.1.15,2013-06-04 20:39:00,
2013-06-04 16:45:00,77.2,71.6,29.95,ESE,112,4.0,7.0,83,0.00,,,0.00,Wunderground v.1.15,2013-06-04 20:45:00,
2013-06-04 16:55:00,76.5,71.3,29.96,ESE,115,6.0,10.0,84,0.00,,,0.00,Wunderground v.1.15,2013-06-04 20:55:00,
2013-06-04 17:04:00,76.4,71.2,29.96,SE,136,5.0,5.0,84,0.00,,,0.00,Wunderground v.1.15,2013-06-04 21:04:00,
2013-06-04 17:10:00,76.4,71.2,29.96,ESE,115,5.0,5.0,84,0.00,,,0.00,Wunderground v.1.15,2013-06-04 21:10:00,
2013-06-04 17:20:00,76.3,71.1,29.97,SE,146,3.0,3.0,84,0.00,,,0.00,Wunderground v.1.15,2013-06-04 21:20:00,
2013-06-04 17:30:00,76.3,71.1,29.97,ESE,114,5.0,5.0,84,0.00,,,0.00,Wunderground v.1.15,2013-06-04 21:30:00,
2013-06-04 17:40:00,76.7,71.5,29.96,ESE,109,3.0,8.0,84,0.00,,,0.00,Wunderground v.1.15,2013-06-04 21:40:00,
2013-06-04 17:50:00,77.3,71.4,29.96,SE,138,5.0,6.0,82,0.00,,,0.00,Wunderground v.1.15,2013-06-04 21:50:00,
2013-06-04 18:00:00,77.7,71.8,29.97,SSE,147,6.0,6.0,82,0.00,,,0.00,Wunderground v.1.15,2013-06-04 22:00:00,
2013-06-04 18:10:00,77.8,71.9,29.97,ESE,111,4.0,10.0,82,0.00,,,0.00,Wunderground v.1.15,2013-06-04 22:10:00,
2013-06-04 18:20:00,77.3,71.4,29.98,ESE,119,6.0,6.0,82,0.00,,,0.00,Wunderground v.1.15,2013-06-04 22:20:00,
2013-06-04 18:30:00,77.4,71.1,29.98,SE,132,6.0,7.0,81,0.00,,,0.00,Wunderground v.1.15,2013-06-04 22:30:00,
2013-06-04 18:40:00,77.5,71.2,29.98,SSE,150,6.0,10.0,81,0.00,,,0.00,Wunderground v.1.15,2013-06-04 22:40:00,
2013-06-04 18:50:00,77.5,71.2,29.98,ESE,116,6.0,6.0,81,0.00,,,0.00,Wunderground v.1.15,2013-06-04 22:50:00,
2013-06-04 18:59:00,77.5,71.2,29.98,ESE,121,4.0,4.0,81,0.00,,,0.00,Wunderground v.1.15,2013-06-04 22:59:00,
2013-06-04 19:05:00,77.5,71.2,29.98,SE,125,5.0,5.0,81,0.00,,,0.00,Wunderground v.1.15,2013-06-04 23:05:00,
2013-06-04 19:15:00,77.6,71.3,29.98,SE,128,5.0,5.0,81,0.00,,,0.00,Wunderground v.1.15,2013-06-04 23:15:00,
2013-06-04 19:25:00,77.2,70.9,29.99,SSE,157,6.0,7.0,81,0.00,,,0.00,Wunderground v.1.15,2013-06-04 23:25:00,
2013-06-04 19:35:00,76.9,71.0,29.98,SE,144,6.0,9.0,82,0.00,,,0.00,Wunderground v.1.15,2013-06-04 23:35:00,
2013-06-04 19:45:00,76.8,70.9,29.98,ESE,119,6.0,7.0,82,0.00,,,0.00,Wunderground v.1.15,2013-06-04 23:45:00,
2013-06-04 19:55:00,76.6,71.0,29.99,ESE,109,4.0,6.0,83,0.00,,,0.00,Wunderground v.1.15,2013-06-04 23:55:00,
2013-06-04 20:00:00,76.5,70.9,29.99,SE,127,3.0,5.0,83,0.00,,,0.00,Wunderground v.1.15,2013-06-05 00:00:00,
2013-06-04 20:10:00,76.2,71.0,29.99,ESE,104,4.0,5.0,84,0.00,,,0.00,Wunderground v.1.15,2013-06-05 00:10:00,
2013-06-04 20:15:00,76.0,71.2,29.99,ESE,111,4.0,5.0,85,0.00,,,0.00,Wunderground v.1.15,2013-06-05 00:15:00,
2013-06-04 20:25:00,75.7,71.2,29.99,SE,130,3.0,4.0,86,0.00,,,0.00,Wunderground v.1.15,2013-06-05 00:25:00,
2013-06-04 20:35:00,75.5,71.4,29.99,ESE,106,3.0,4.0,87,0.00,,,0.00,Wunderground v.1.15,2013-06-05 00:35:00,
2013-06-04 20:45:00,75.3,71.5,29.99,SSE,148,3.0,3.0,88,0.00,,,0.00,Wunderground v.1.15,2013-06-05 00:45:00,
2013-06-04 20:50:00,75.2,71.4,29.99,ESE,112,2.0,2.0,88,0.00,,,0.00,Wunderground v.1.15,2013-06-05 00:50:00,
2013-06-04 21:00:00,75.1,71.6,30.00,SE,138,2.0,4.0,89,0.00,,,0.00,Wunderground v.1.15,2013-06-05 01:00:00,
2013-06-04 21:09:00,75.0,71.5,30.00,SE,130,1.0,1.0,89,0.00,,,0.00,Wunderground v.1.15,2013-06-05 01:09:00,
2013-06-04 21:15:00,74.9,71.4,30.00,SE,128,1.0,1.0,89,0.00,,,0.00,Wunderground v.1.15,2013-06-05 01:15:00,
2013-06-04 21:20:00,74.8,71.3,29.99,ESE,110,1.0,2.0,89,0.00,,,0.00,Wunderground v.1.15,2013-06-05 01:20:00,
2013-06-04 21:30:00,74.6,71.1,30.00,ESE,104,1.0,2.0,89,0.00,,,0.00,Wunderground v.1.15,2013-06-05 01:30:00,
2013-06-04 21:40:00,74.5,71.0,30.00,ESE,103,2.0,2.0,89,0.00,,,0.00,Wunderground v.1.15,2013-06-05 01:40:00,
2013-06-04 21:50:00,74.3,71.2,30.00,ESE,103,0.0,0.0,90,0.00,,,0.00,Wunderground v.1.15,2013-06-05 01:50:00,
2013-06-04 22:00:00,74.3,71.2,30.01,ESE,109,0.0,0.0,90,0.00,,,0.00,Wunderground v.1.15,2013-06-05 02:00:00,
2013-06-04 22:10:00,74.4,71.3,30.01,SE,129,1.0,1.0,90,0.00,,,0.00,Wunderground v.1.15,2013-06-05 02:10:00,
2013-06-04 22:19:00,74.4,71.3,30.01,SE,126,1.0,2.0,90,0.00,,,0.00,Wunderground v.1.15,2013-06-05 02:19:00,
2013-06-04 22:25:00,74.4,71.3,30.02,SE,129,1.0,2.0,90,0.00,,,0.00,Wunderground v.1.15,2013-06-05 02:25:00,
2013-06-04 22:30:00,74.4,71.3,30.02,SE,129,1.0,1.0,90,0.00,,,0.00,Wunderground v.1.15,2013-06-05 02:30:00,
2013-06-04 22:40:00,74.5,71.7,30.02,SE,129,0.0,0.0,91,0.00,,,0.00,Wunderground v.1.15,2013-06-05 02:40:00,
2013-06-04 22:50:00,74.3,71.5,30.03,SE,129,0.0,1.0,91,0.00,,,0.00,Wunderground v.1.15,2013-06-05 02:50:00,
2013-06-04 23:00:00,73.9,71.1,30.03,ESE,105,1.0,1.0,91,0.00,,,0.00,Wunderground v.1.15,2013-06-05 03:00:00,
2013-06-04 23:10:00,73.8,71.3,30.02,ENE,61,1.0,3.0,92,0.00,,,0.00,Wunderground v.1.15,2013-06-05 03:10:00,
2013-06-04 23:20:00,73.8,71.3,30.02,ENE,74,1.0,1.0,92,0.00,,,0.00,Wunderground v.1.15,2013-06-05 03:20:00,
2013-06-04 23:30:00,73.9,71.4,30.02,ENE,75,0.0,1.0,92,0.00,,,0.00,Wunderground v.1.15,2013-06-05 03:30:00,
2013-06-04 23:40:00,74.1,71.9,30.02,East,99,2.0,2.0,93,0.00,,,0.00,Wunderground v.1.15,2013-06-05 03:40:00,
2013-06-04 23:50:00,73.9,71.4,30.03,East,89,1.0,1.0,92,0.00,,,0.00,Wunderground v.1.15,2013-06-05 03:50:00,